Year,Month,Day,Hour,Minute,Value (Times are PST for temperature in C)
2016,04,03,00,00,9.50
2016,04,03,00,01,9.50
2016,04,03,00,02,9.50
2016,04,03,00,03,9.50
2016,04,03,00,04,9.50
2016,04,03,00,05,9.50
2016,04,03,00,06,9.50
2016,04,03,00,07,9.50
2016,04,03,00,08,9.50
2016,04,03,00,09,9.50
2016,04,03,00,10,9.50
2016,04,03,00,11,9.60
2016,04,03,00,12,9.60
2016,04,03,00,13,9.60
2016,04,03,00,14,9.60
2016,04,03,00,15,9.60
2016,04,03,00,16,9.60
2016,04,03,00,17,9.70
2016,04,03,00,18,9.70
2016,04,03,00,19,9.70
2016,04,03,00,20,9.70
2016,04,03,00,21,9.70
2016,04,03,00,22,9.70
2016,04,03,00,23,9.70
2016,04,03,00,24,9.70
2016,04,03,00,25,9.70
2016,04,03,00,26,9.70
2016,04,03,00,27,9.70
2016,04,03,00,28,9.70
2016,04,03,00,29,9.70
2016,04,03,00,30,9.70
2016,04,03,00,31,9.70
2016,04,03,00,32,9.70
2016,04,03,00,33,9.70
2016,04,03,00,34,9.70
2016,04,03,00,35,9.70
2016,04,03,00,36,9.70
2016,04,03,00,37,9.70
2016,04,03,00,38,9.70
2016,04,03,00,39,9.70
2016,04,03,00,40,9.70
2016,04,03,00,41,9.70
2016,04,03,00,42,9.60
2016,04,03,00,43,9.60
2016,04,03,00,44,9.60
2016,04,03,00,45,9.60
2016,04,03,00,46,9.60
2016,04,03,00,47,9.60
2016,04,03,00,48,9.60
2016,04,03,00,49,9.60
2016,04,03,00,50,9.60
2016,04,03,00,51,9.60
2016,04,03,00,52,9.60
2016,04,03,00,53,9.60
2016,04,03,00,54,9.50
2016,04,03,00,55,9.50
2016,04,03,00,56,9.50
2016,04,03,00,57,9.50
2016,04,03,00,59,9.50
2016,04,03,01,00,9.50
2016,04,03,01,02,9.50
2016,04,03,01,03,9.50
2016,04,03,01,04,9.50
2016,04,03,01,06,9.50
2016,04,03,01,07,9.50
2016,04,03,01,08,9.50
2016,04,03,01,09,9.50
2016,04,03,01,11,9.40
2016,04,03,01,12,9.40
2016,04,03,01,13,9.40
2016,04,03,01,14,9.40
2016,04,03,01,16,9.40
2016,04,03,01,17,9.40
2016,04,03,01,18,9.40
2016,04,03,01,19,9.40
2016,04,03,01,21,9.30
2016,04,03,01,22,9.30
2016,04,03,01,23,9.30
2016,04,03,01,24,9.30
2016,04,03,01,26,9.30
2016,04,03,01,27,9.30
2016,04,03,01,28,9.30
2016,04,03,01,29,9.30
2016,04,03,01,31,9.20
2016,04,03,01,32,9.20
2016,04,03,01,33,9.20
2016,04,03,01,34,9.20
2016,04,03,01,36,9.20
2016,04,03,01,37,9.20
2016,04,03,01,38,9.20
2016,04,03,01,39,9.20
2016,04,03,01,41,9.20
2016,04,03,01,42,9.20
2016,04,03,01,43,9.20
2016,04,03,01,44,9.20
2016,04,03,01,46,9.20
2016,04,03,01,47,9.20
2016,04,03,01,48,9.20
2016,04,03,01,49,9.20
2016,04,03,01,51,9.20
2016,04,03,01,52,9.20
2016,04,03,01,53,9.10
2016,04,03,01,54,9.10
2016,04,03,01,56,9.10
2016,04,03,01,57,9.10
2016,04,03,01,58,9.00
2016,04,03,01,59,9.00
2016,04,03,02,01,9.00
2016,04,03,02,02,9.00
2016,04,03,02,03,8.90
2016,04,03,02,04,8.90
2016,04,03,02,06,8.90
2016,04,03,02,07,8.80
2016,04,03,02,08,8.80
2016,04,03,02,09,8.80
2016,04,03,02,11,8.70
2016,04,03,02,12,8.70
2016,04,03,02,13,8.70
2016,04,03,02,14,8.70
2016,04,03,02,15,8.70
2016,04,03,02,16,8.70
2016,04,03,02,17,8.70
2016,04,03,02,18,8.70
2016,04,03,02,19,8.70
2016,04,03,02,20,8.70
2016,04,03,02,21,8.60
2016,04,03,02,22,8.60
2016,04,03,02,23,8.60
2016,04,03,02,24,8.60
2016,04,03,02,25,8.60
2016,04,03,02,26,8.60
2016,04,03,02,27,8.50
2016,04,03,02,28,8.50
2016,04,03,02,29,8.50
2016,04,03,02,30,8.50
2016,04,03,02,31,8.50
2016,04,03,02,32,8.50
2016,04,03,02,33,8.50
2016,04,03,02,34,8.40
2016,04,03,02,35,8.40
2016,04,03,02,36,8.40
2016,04,03,02,37,8.40
2016,04,03,02,38,8.40
2016,04,03,02,39,8.40
2016,04,03,02,40,8.40
2016,04,03,02,41,8.40
2016,04,03,02,42,8.30
2016,04,03,02,43,8.30
2016,04,03,02,44,8.30
2016,04,03,02,45,8.30
2016,04,03,02,46,8.30
2016,04,03,02,47,8.30
2016,04,03,02,48,8.30
2016,04,03,02,49,8.30
2016,04,03,02,50,8.30
2016,04,03,02,51,8.30
2016,04,03,02,52,8.30
2016,04,03,02,53,8.30
2016,04,03,02,54,8.30
2016,04,03,02,55,8.30
2016,04,03,02,56,8.20
2016,04,03,02,57,8.20
2016,04,03,02,58,8.20
2016,04,03,02,59,8.20
2016,04,03,03,00,8.20
2016,04,03,03,01,8.20
2016,04,03,03,02,8.20
2016,04,03,03,03,8.20
2016,04,03,03,04,8.30
2016,04,03,03,05,8.30
2016,04,03,03,06,8.30
2016,04,03,03,07,8.30
2016,04,03,03,08,8.30
2016,04,03,03,09,8.30
2016,04,03,03,10,8.30
2016,04,03,03,11,8.30
2016,04,03,03,12,8.30
2016,04,03,03,13,8.30
2016,04,03,03,14,8.30
2016,04,03,03,15,8.40
2016,04,03,03,16,8.40
2016,04,03,03,17,8.40
2016,04,03,03,18,8.40
2016,04,03,03,19,8.40
2016,04,03,03,20,8.40
2016,04,03,03,21,8.40
2016,04,03,03,22,8.40
2016,04,03,03,23,8.40
2016,04,03,03,24,8.40
2016,04,03,03,25,8.30
2016,04,03,03,26,8.30
2016,04,03,03,27,8.30
2016,04,03,03,28,8.30
2016,04,03,03,29,8.30
2016,04,03,03,30,8.30
2016,04,03,03,31,8.30
2016,04,03,03,32,8.30
2016,04,03,03,33,8.30
2016,04,03,03,34,8.30
2016,04,03,03,35,8.30
2016,04,03,03,36,8.30
2016,04,03,03,37,8.30
2016,04,03,03,38,8.30
2016,04,03,03,39,8.30
2016,04,03,03,40,8.30
2016,04,03,03,41,8.30
2016,04,03,03,42,8.30
2016,04,03,03,43,8.30
2016,04,03,03,44,8.30
2016,04,03,03,45,8.30
2016,04,03,03,46,8.30
2016,04,03,03,47,8.30
2016,04,03,03,48,8.30
2016,04,03,03,49,8.30
2016,04,03,03,50,8.20
2016,04,03,03,51,8.20
2016,04,03,03,53,8.20
2016,04,03,03,54,8.20
2016,04,03,03,56,8.20
2016,04,03,03,57,8.20
2016,04,03,03,58,8.20
2016,04,03,03,59,8.10
2016,04,03,04,01,8.10
2016,04,03,04,02,8.10
2016,04,03,04,03,8.10
2016,04,03,04,04,8.00
2016,04,03,04,06,8.00
2016,04,03,04,07,8.00
2016,04,03,04,08,8.00
2016,04,03,04,09,8.00
2016,04,03,04,11,7.90
2016,04,03,04,12,7.90
2016,04,03,04,13,7.90
2016,04,03,04,14,7.90
2016,04,03,04,16,7.90
2016,04,03,04,17,7.90
2016,04,03,04,18,7.80
2016,04,03,04,19,7.90
2016,04,03,04,21,7.90
2016,04,03,04,22,7.90
2016,04,03,04,23,7.90
2016,04,03,04,24,7.90
2016,04,03,04,26,7.90
2016,04,03,04,27,7.90
2016,04,03,04,28,7.90
2016,04,03,04,29,7.90
2016,04,03,04,31,7.90
2016,04,03,04,32,7.90
2016,04,03,04,33,7.90
2016,04,03,04,34,7.90
2016,04,03,04,36,7.90
2016,04,03,04,37,7.90
2016,04,03,04,38,7.90
2016,04,03,04,39,7.90
2016,04,03,04,41,7.90
2016,04,03,04,42,7.90
2016,04,03,04,43,7.90
2016,04,03,04,44,8.00
2016,04,03,04,46,8.00
2016,04,03,04,47,8.00
2016,04,03,04,48,8.00
2016,04,03,04,49,8.00
2016,04,03,04,51,8.00
2016,04,03,04,52,8.00
2016,04,03,04,53,8.00
2016,04,03,04,54,8.00
2016,04,03,04,55,8.00
2016,04,03,04,56,8.00
2016,04,03,04,57,8.00
2016,04,03,04,58,8.00
2016,04,03,04,59,8.00
2016,04,03,05,00,8.00
2016,04,03,05,01,8.00
2016,04,03,05,02,8.00
2016,04,03,05,03,8.00
2016,04,03,05,04,8.00
2016,04,03,05,06,8.00
2016,04,03,05,07,8.00
2016,04,03,05,08,8.00
2016,04,03,05,09,8.00
2016,04,03,05,10,8.00
2016,04,03,05,11,8.00
2016,04,03,05,12,8.00
2016,04,03,05,13,8.00
2016,04,03,05,14,8.10
2016,04,03,05,15,8.10
2016,04,03,05,16,8.10
2016,04,03,05,17,8.10
2016,04,03,05,18,8.10
2016,04,03,05,19,8.20
2016,04,03,05,20,8.20
2016,04,03,05,21,8.20
2016,04,03,05,22,8.20
2016,04,03,05,23,8.20
2016,04,03,05,24,8.20
2016,04,03,05,25,8.20
2016,04,03,05,26,8.20
2016,04,03,05,27,8.20
2016,04,03,05,28,8.20
2016,04,03,05,29,8.20
2016,04,03,05,30,8.20
2016,04,03,05,31,8.20
2016,04,03,05,32,8.20
2016,04,03,05,33,8.20
2016,04,03,06,29,8.20
2016,04,03,06,30,8.20
2016,04,03,06,31,8.20
2016,04,03,06,32,8.20
2016,04,03,06,33,8.20
2016,04,03,06,34,8.20
2016,04,03,06,35,8.20
2016,04,03,06,36,8.20
2016,04,03,06,37,8.20
2016,04,03,06,38,8.20
2016,04,03,06,39,8.20
2016,04,03,06,40,8.20
2016,04,03,06,41,8.20
2016,04,03,06,42,8.20
2016,04,03,06,43,8.30
2016,04,03,06,44,8.30
2016,04,03,06,45,8.30
2016,04,03,06,46,8.30
2016,04,03,06,47,8.40
2016,04,03,06,48,8.40
2016,04,03,06,49,8.50
2016,04,03,06,50,8.50
2016,04,03,06,51,8.50
2016,04,03,06,52,8.60
2016,04,03,06,53,8.60
2016,04,03,06,54,8.70
2016,04,03,06,55,8.70
2016,04,03,06,56,8.70
2016,04,03,06,57,8.70
2016,04,03,06,58,8.70
2016,04,03,06,59,8.80
2016,04,03,07,00,8.80
2016,04,03,07,01,8.80
2016,04,03,07,02,8.90
2016,04,03,07,03,8.90
2016,04,03,07,04,8.90
2016,04,03,07,05,8.90
2016,04,03,07,06,8.90
2016,04,03,07,07,8.90
2016,04,03,07,08,8.90
2016,04,03,07,09,8.90
2016,04,03,07,11,8.90
2016,04,03,07,12,9.00
2016,04,03,07,13,9.00
2016,04,03,07,14,9.00
2016,04,03,07,16,9.00
2016,04,03,07,17,9.00
2016,04,03,07,18,9.00
2016,04,03,07,19,9.00
2016,04,03,07,21,9.00
2016,04,03,07,22,9.00
2016,04,03,07,23,9.00
2016,04,03,07,24,9.00
2016,04,03,07,26,9.00
2016,04,03,07,27,9.00
2016,04,03,07,28,9.00
2016,04,03,07,29,9.00
2016,04,03,07,31,9.00
2016,04,03,07,32,9.00
2016,04,03,07,33,9.00
2016,04,03,07,34,9.00
2016,04,03,07,36,9.00
2016,04,03,07,37,9.00
2016,04,03,07,38,9.10
2016,04,03,07,39,9.10
2016,04,03,07,41,9.10
2016,04,03,07,42,9.10
2016,04,03,07,43,9.10
2016,04,03,07,44,9.10
2016,04,03,07,46,9.10
2016,04,03,07,47,9.10
2016,04,03,07,48,9.10
2016,04,03,07,49,9.10
2016,04,03,07,51,9.20
2016,04,03,07,52,9.20
2016,04,03,07,53,9.20
2016,04,03,07,54,9.20
2016,04,03,07,56,9.20
2016,04,03,07,57,9.20
2016,04,03,07,58,9.30
2016,04,03,07,59,9.30
2016,04,03,08,01,9.40
2016,04,03,08,02,9.40
2016,04,03,08,03,9.40
2016,04,03,08,04,9.40
2016,04,03,08,06,9.40
2016,04,03,08,07,9.40
2016,04,03,08,08,9.40
2016,04,03,08,09,9.40
2016,04,03,08,11,9.50
2016,04,03,08,12,9.50
2016,04,03,08,13,9.50
2016,04,03,08,14,9.50
2016,04,03,08,16,9.50
2016,04,03,08,17,9.50
2016,04,03,08,18,9.50
2016,04,03,08,19,9.50
2016,04,03,08,20,9.50
2016,04,03,08,21,9.50
2016,04,03,08,22,9.50
2016,04,03,08,23,9.50
2016,04,03,08,24,9.60
2016,04,03,08,25,9.60
2016,04,03,08,26,9.60
2016,04,03,08,27,9.60
2016,04,03,08,28,9.70
2016,04,03,08,29,9.70
2016,04,03,08,30,9.70
2016,04,03,08,31,9.70
2016,04,03,08,32,9.70
2016,04,03,08,33,9.80
2016,04,03,08,34,9.80
2016,04,03,08,35,9.90
2016,04,03,08,36,9.90
2016,04,03,08,37,9.90
2016,04,03,08,38,10.10
2016,04,03,08,39,10.10
2016,04,03,08,40,10.10
2016,04,03,08,41,10.20
2016,04,03,08,42,10.20
2016,04,03,08,43,10.20
2016,04,03,08,44,10.30
2016,04,03,08,45,10.30
2016,04,03,08,46,10.30
2016,04,03,08,47,10.40
2016,04,03,08,48,10.40
2016,04,03,08,49,10.40
2016,04,03,08,50,10.40
2016,04,03,08,51,10.40
2016,04,03,08,52,10.40
2016,04,03,08,53,10.60
2016,04,03,08,54,10.40
2016,04,03,08,55,10.40
2016,04,03,08,56,10.40
2016,04,03,08,57,10.40
2016,04,03,08,58,10.40
2016,04,03,08,59,10.40
2016,04,03,09,00,10.40
2016,04,03,09,01,10.40
2016,04,03,09,02,10.40
2016,04,03,09,03,10.30
2016,04,03,09,04,10.30
2016,04,03,09,05,10.30
2016,04,03,09,06,10.20
2016,04,03,09,07,10.20
2016,04,03,09,08,10.20
2016,04,03,09,09,10.20
2016,04,03,09,10,10.10
2016,04,03,09,11,10.10
2016,04,03,09,12,10.20
2016,04,03,09,13,10.20
2016,04,03,09,14,10.20
2016,04,03,09,15,10.20
2016,04,03,09,16,10.20
2016,04,03,09,17,10.20
2016,04,03,09,18,10.20
2016,04,03,09,19,10.30
2016,04,03,09,20,10.30
2016,04,03,09,21,10.40
2016,04,03,09,22,10.40
2016,04,03,09,23,10.40
2016,04,03,09,24,10.40
2016,04,03,09,25,10.40
2016,04,03,09,26,10.60
2016,04,03,09,27,10.60
2016,04,03,09,28,10.60
2016,04,03,09,29,10.60
2016,04,03,09,30,10.60
2016,04,03,09,31,10.70
2016,04,03,09,32,10.70
2016,04,03,09,33,10.80
2016,04,03,09,34,10.80
2016,04,03,09,35,10.90
2016,04,03,09,36,10.90
2016,04,03,09,37,10.90
2016,04,03,09,38,10.90
2016,04,03,09,39,10.90
2016,04,03,09,40,10.90
2016,04,03,09,41,10.90
2016,04,03,09,42,10.90
2016,04,03,09,43,10.90
2016,04,03,09,44,10.90
2016,04,03,09,45,10.90
2016,04,03,09,46,10.90
2016,04,03,09,47,10.90
2016,04,03,09,48,10.90
2016,04,03,09,49,10.90
2016,04,03,09,50,10.90
2016,04,03,09,52,11.10
2016,04,03,09,54,11.10
2016,04,03,09,56,11.30
2016,04,03,09,57,11.30
2016,04,03,09,58,11.40
2016,04,03,09,59,11.40
2016,04,03,10,01,11.40
2016,04,03,10,02,11.40
2016,04,03,10,03,11.40
2016,04,03,10,04,11.40
2016,04,03,10,06,11.40
2016,04,03,10,07,11.60
2016,04,03,10,08,11.60
2016,04,03,10,09,11.60
2016,04,03,10,11,11.60
2016,04,03,10,12,11.70
2016,04,03,10,13,11.70
2016,04,03,10,14,11.70
2016,04,03,10,16,11.70
2016,04,03,10,17,11.80
2016,04,03,10,18,11.80
2016,04,03,10,19,11.80
2016,04,03,10,21,11.80
2016,04,03,10,22,11.70
2016,04,03,10,23,11.80
2016,04,03,10,24,11.80
2016,04,03,10,26,11.80
2016,04,03,10,27,11.80
2016,04,03,10,28,11.80
2016,04,03,10,29,11.80
2016,04,03,10,31,11.90
2016,04,03,10,32,11.80
2016,04,03,10,33,11.80
2016,04,03,10,34,11.90
2016,04,03,10,36,12.00
2016,04,03,10,37,12.00
2016,04,03,10,38,12.10
2016,04,03,10,39,12.10
2016,04,03,10,41,12.20
2016,04,03,10,42,12.30
2016,04,03,10,43,12.30
2016,04,03,10,44,12.30
2016,04,03,10,46,12.40
2016,04,03,10,47,12.50
2016,04,03,10,48,12.60
2016,04,03,10,49,12.70
2016,04,03,10,51,12.80
2016,04,03,10,52,12.80
2016,04,03,10,53,12.90
2016,04,03,10,54,13.00
2016,04,03,10,56,13.10
2016,04,03,10,57,13.10
2016,04,03,10,58,13.10
2016,04,03,10,59,13.10
2016,04,03,11,00,13.10
2016,04,03,11,01,13.10
2016,04,03,11,02,13.10
2016,04,03,11,03,13.10
2016,04,03,11,04,13.20
2016,04,03,11,06,13.20
2016,04,03,11,07,13.30
2016,04,03,11,08,13.30
2016,04,03,11,09,13.20
2016,04,03,11,10,13.20
2016,04,03,11,11,13.10
2016,04,03,11,12,13.00
2016,04,03,11,13,12.90
2016,04,03,11,14,12.80
2016,04,03,11,15,12.80
2016,04,03,11,16,12.80
2016,04,03,11,17,12.70
2016,04,03,11,18,12.70
2016,04,03,11,19,12.60
2016,04,03,11,20,12.60
2016,04,03,11,21,12.60
2016,04,03,11,22,12.60
2016,04,03,11,23,12.60
2016,04,03,11,24,12.60
2016,04,03,11,25,12.70
2016,04,03,11,26,12.70
2016,04,03,11,27,12.70
2016,04,03,11,28,12.70
2016,04,03,11,29,12.60
2016,04,03,11,30,12.70
2016,04,03,11,31,12.70
2016,04,03,11,32,12.70
2016,04,03,11,33,12.70
2016,04,03,11,34,12.70
2016,04,03,11,35,12.70
2016,04,03,11,36,12.70
2016,04,03,11,37,12.70
2016,04,03,11,38,12.70
2016,04,03,11,39,12.70
2016,04,03,11,40,12.70
2016,04,03,11,41,12.70
2016,04,03,11,42,12.70
2016,04,03,11,43,12.80
2016,04,03,11,44,12.80
2016,04,03,11,45,12.80
2016,04,03,11,46,12.80
2016,04,03,11,47,12.90
2016,04,03,11,48,12.90
2016,04,03,11,49,13.00
2016,04,03,11,50,13.00
2016,04,03,11,51,13.00
2016,04,03,11,52,13.10
2016,04,03,11,53,13.10
2016,04,03,11,54,13.10
2016,04,03,11,55,13.10
2016,04,03,11,56,13.10
2016,04,03,11,57,13.10
2016,04,03,11,58,13.00
2016,04,03,11,59,13.00
2016,04,03,12,00,13.00
2016,04,03,12,01,13.00
2016,04,03,12,02,13.00
2016,04,03,12,03,12.90
2016,04,03,12,04,12.90
2016,04,03,12,05,12.80
2016,04,03,12,06,12.80
2016,04,03,12,07,12.90
2016,04,03,12,08,12.90
2016,04,03,12,09,12.90
2016,04,03,12,10,12.80
2016,04,03,12,11,12.80
2016,04,03,12,12,12.80
2016,04,03,12,13,12.70
2016,04,03,12,14,12.70
2016,04,03,12,15,12.60
2016,04,03,12,16,12.50
2016,04,03,12,17,12.40
2016,04,03,12,18,12.40
2016,04,03,12,19,12.30
2016,04,03,12,20,12.30
2016,04,03,12,21,12.30
2016,04,03,12,22,12.30
2016,04,03,12,23,12.20
2016,04,03,12,24,12.20
2016,04,03,12,25,12.20
2016,04,03,12,26,12.20
2016,04,03,12,27,12.20
2016,04,03,12,28,12.30
2016,04,03,12,29,12.30
2016,04,03,12,30,12.30
2016,04,03,12,31,12.30
2016,04,03,12,32,12.30
2016,04,03,12,33,12.30
2016,04,03,12,34,12.30
2016,04,03,12,36,12.30
2016,04,03,12,37,12.20
2016,04,03,12,38,12.20
2016,04,03,12,39,12.10
2016,04,03,12,41,12.10
2016,04,03,12,42,12.00
2016,04,03,12,43,12.00
2016,04,03,12,44,12.00
2016,04,03,12,46,11.90
2016,04,03,12,47,11.90
2016,04,03,12,48,12.00
2016,04,03,12,49,12.00
2016,04,03,12,51,12.00
2016,04,03,12,52,12.00
2016,04,03,12,53,12.00
2016,04,03,12,54,12.00
2016,04,03,12,56,12.00
2016,04,03,12,57,12.00
2016,04,03,12,58,12.00
2016,04,03,12,59,12.00
2016,04,03,13,01,12.00
2016,04,03,13,02,12.00
2016,04,03,13,03,12.00
2016,04,03,13,04,12.00
2016,04,03,13,06,12.10
2016,04,03,13,07,12.10
2016,04,03,13,08,12.10
2016,04,03,13,09,12.10
2016,04,03,13,11,12.20
2016,04,03,13,12,12.20
2016,04,03,13,13,12.30
2016,04,03,13,14,12.30
2016,04,03,13,16,12.30
2016,04,03,13,17,12.40
2016,04,03,13,18,12.40
2016,04,03,13,19,12.40
2016,04,03,13,21,12.40
2016,04,03,13,22,12.40
2016,04,03,13,23,12.40
2016,04,03,13,24,12.30
2016,04,03,13,26,12.30
2016,04,03,13,27,12.30
2016,04,03,13,28,12.30
2016,04,03,13,29,12.40
2016,04,03,13,31,12.40
2016,04,03,13,32,12.50
2016,04,03,13,33,12.50
2016,04,03,13,34,12.60
2016,04,03,13,36,12.70
2016,04,03,13,37,12.70
2016,04,03,13,38,12.70
2016,04,03,13,39,12.70
2016,04,03,13,41,12.70
2016,04,03,13,42,12.80
2016,04,03,13,43,12.80
2016,04,03,13,44,12.80
2016,04,03,13,45,12.80
2016,04,03,13,46,12.80
2016,04,03,13,47,12.80
2016,04,03,13,48,12.80
2016,04,03,13,49,12.80
2016,04,03,13,50,12.90
2016,04,03,13,51,12.90
2016,04,03,13,52,13.00
2016,04,03,13,53,13.00
2016,04,03,13,54,12.90
2016,04,03,13,55,12.90
2016,04,03,13,56,12.80
2016,04,03,13,57,12.80
2016,04,03,13,58,12.80
2016,04,03,13,59,12.80
2016,04,03,14,00,12.80
2016,04,03,14,01,12.80
2016,04,03,14,02,12.80
2016,04,03,14,03,12.80
2016,04,03,14,04,12.80
2016,04,03,14,05,12.80
2016,04,03,14,06,12.90
2016,04,03,14,07,12.90
2016,04,03,14,08,12.90
2016,04,03,14,09,13.00
2016,04,03,14,10,13.00
2016,04,03,14,11,13.00
2016,04,03,14,12,13.00
2016,04,03,14,13,13.00
2016,04,03,14,14,13.00
2016,04,03,14,15,13.00
2016,04,03,14,16,13.00
2016,04,03,14,17,13.10
2016,04,03,14,18,13.10
2016,04,03,14,19,13.10
2016,04,03,14,20,13.10
2016,04,03,14,21,13.10
2016,04,03,14,22,13.00
2016,04,03,14,23,13.00
2016,04,03,14,24,13.00
2016,04,03,14,25,13.00
2016,04,03,14,26,13.00
2016,04,03,14,27,13.00
2016,04,03,14,28,13.00
2016,04,03,14,29,13.00
2016,04,03,14,30,12.90
2016,04,03,14,31,12.90
2016,04,03,14,32,12.90
2016,04,03,14,33,13.00
2016,04,03,14,34,13.00
2016,04,03,14,35,13.10
2016,04,03,14,36,13.10
2016,04,03,14,37,13.20
2016,04,03,14,38,13.20
2016,04,03,14,39,13.20
2016,04,03,14,40,13.20
2016,04,03,14,41,13.20
2016,04,03,14,42,13.20
2016,04,03,14,43,13.20
2016,04,03,14,44,13.20
2016,04,03,14,45,13.20
2016,04,03,14,46,13.20
2016,04,03,14,47,13.20
2016,04,03,14,48,13.20
2016,04,03,14,49,13.30
2016,04,03,14,50,13.30
2016,04,03,14,51,13.30
2016,04,03,14,52,13.30
2016,04,03,14,53,13.30
2016,04,03,14,54,13.30
2016,04,03,14,55,13.30
2016,04,03,14,56,13.30
2016,04,03,14,57,13.40
2016,04,03,14,58,13.50
2016,04,03,14,59,13.50
2016,04,03,15,00,13.60
2016,04,03,15,01,13.60
2016,04,03,15,02,13.70
2016,04,03,15,03,13.70
2016,04,03,15,04,13.70
2016,04,03,15,05,13.70
2016,04,03,15,06,13.70
2016,04,03,15,07,13.70
2016,04,03,15,08,13.70
2016,04,03,15,09,13.80
2016,04,03,15,10,13.80
2016,04,03,15,11,13.80
2016,04,03,15,12,13.80
2016,04,03,15,13,13.90
2016,04,03,15,14,13.90
2016,04,03,15,15,13.90
2016,04,03,15,16,13.90
2016,04,03,15,17,13.90
2016,04,03,15,19,13.90
2016,04,03,15,21,13.90
2016,04,03,15,22,13.90
2016,04,03,15,23,13.90
2016,04,03,15,24,13.90
2016,04,03,15,26,13.90
2016,04,03,15,27,13.80
2016,04,03,15,28,13.80
2016,04,03,15,29,13.80
2016,04,03,15,31,13.70
2016,04,03,15,32,13.70
2016,04,03,15,33,13.70
2016,04,03,15,34,13.70
2016,04,03,15,36,13.70
2016,04,03,15,37,13.70
2016,04,03,15,38,13.70
2016,04,03,15,39,13.70
2016,04,03,15,41,13.70
2016,04,03,15,42,13.70
2016,04,03,15,43,13.70
2016,04,03,15,44,13.70
2016,04,03,15,46,13.70
2016,04,03,15,47,13.70
2016,04,03,15,48,13.70
2016,04,03,15,49,13.70
2016,04,03,15,51,13.60
2016,04,03,15,52,13.60
2016,04,03,15,53,13.60
2016,04,03,15,54,13.50
2016,04,03,15,56,13.40
2016,04,03,15,57,13.40
2016,04,03,15,58,13.30
2016,04,03,15,59,13.30
2016,04,03,16,01,13.30
2016,04,03,16,02,13.30
2016,04,03,16,03,13.30
2016,04,03,16,04,13.30
2016,04,03,16,06,13.30
2016,04,03,16,07,13.30
2016,04,03,16,08,13.20
2016,04,03,16,09,13.20
2016,04,03,16,11,13.10
2016,04,03,16,12,13.00
2016,04,03,16,13,13.00
2016,04,03,16,14,13.00
2016,04,03,16,16,12.90
2016,04,03,16,17,12.90
2016,04,03,16,18,12.80
2016,04,03,16,19,12.80
2016,04,03,16,21,12.80
2016,04,03,16,22,12.80
2016,04,03,16,23,12.80
2016,04,03,16,24,12.80
2016,04,03,16,26,12.80
2016,04,03,16,27,12.70
2016,04,03,16,28,12.70
2016,04,03,16,29,12.70
2016,04,03,16,31,12.70
2016,04,03,16,32,12.70
2016,04,03,16,33,12.60
2016,04,03,16,34,12.60
2016,04,03,16,35,12.60
2016,04,03,16,36,12.60
2016,04,03,16,37,12.60
2016,04,03,16,38,12.60
2016,04,03,16,39,12.60
2016,04,03,16,40,12.60
2016,04,03,16,41,12.60
2016,04,03,16,42,12.60
2016,04,03,16,43,12.60
2016,04,03,16,44,12.60
2016,04,03,16,45,12.60
2016,04,03,16,46,12.60
2016,04,03,16,47,12.60
2016,04,03,16,48,12.60
2016,04,03,16,49,12.60
2016,04,03,16,50,12.70
2016,04,03,16,51,12.70
2016,04,03,16,52,12.70
2016,04,03,16,53,12.80
2016,04,03,16,54,12.80
2016,04,03,16,55,12.80
2016,04,03,16,56,12.80
2016,04,03,16,57,12.80
2016,04,03,16,58,12.90
2016,04,03,16,59,12.90
2016,04,03,17,00,13.00
2016,04,03,17,01,13.00
2016,04,03,17,02,13.10
2016,04,03,17,03,13.10
2016,04,03,17,04,13.20
2016,04,03,17,05,13.30
2016,04,03,17,06,13.30
2016,04,03,17,07,13.30
2016,04,03,17,08,13.30
2016,04,03,17,09,13.30
2016,04,03,17,10,13.40
2016,04,03,17,11,13.40
2016,04,03,17,12,13.50
2016,04,03,17,13,13.50
2016,04,03,17,14,13.60
2016,04,03,17,15,13.60
2016,04,03,17,16,13.60
2016,04,03,17,17,13.60
2016,04,03,17,18,13.60
2016,04,03,17,19,13.50
2016,04,03,17,20,13.50
2016,04,03,17,21,13.40
2016,04,03,17,22,13.40
2016,04,03,17,23,13.30
2016,04,03,17,24,13.30
2016,04,03,17,25,13.30
2016,04,03,17,26,13.30
2016,04,03,17,27,13.20
2016,04,03,17,28,13.20
2016,04,03,17,29,13.10
2016,04,03,17,30,13.10
2016,04,03,17,31,13.10
2016,04,03,17,32,13.00
2016,04,03,17,33,13.00
2016,04,03,17,34,13.00
2016,04,03,17,35,13.00
2016,04,03,17,36,13.00
2016,04,03,17,37,13.00
2016,04,03,17,38,13.00
2016,04,03,17,39,12.90
2016,04,03,17,40,12.90
2016,04,03,17,41,12.90
2016,04,03,17,42,12.90
2016,04,03,17,43,12.90
2016,04,03,17,44,12.90
2016,04,03,17,45,12.90
2016,04,03,17,46,12.90
2016,04,03,17,47,12.90
2016,04,03,17,48,12.90
2016,04,03,17,49,12.90
2016,04,03,17,50,12.80
2016,04,03,17,51,12.80
2016,04,03,17,52,12.80
2016,04,03,17,53,12.80
2016,04,03,17,54,12.80
2016,04,03,17,55,12.80
2016,04,03,17,56,12.80
2016,04,03,17,57,12.80
2016,04,03,17,59,12.80
2016,04,03,18,00,12.80
2016,04,03,18,02,12.80
2016,04,03,18,03,12.80
2016,04,03,18,04,12.80
2016,04,03,18,06,12.80
2016,04,03,18,07,12.80
2016,04,03,18,08,12.80
2016,04,03,18,09,12.80
2016,04,03,18,11,12.80
2016,04,03,18,12,12.80
2016,04,03,18,13,12.80
2016,04,03,18,14,12.80
2016,04,03,18,16,12.80
2016,04,03,18,17,12.80
2016,04,03,18,18,12.80
2016,04,03,18,19,12.80
2016,04,03,18,21,12.80
2016,04,03,18,22,12.80
2016,04,03,18,23,12.80
2016,04,03,18,24,12.80
2016,04,03,18,26,12.80
2016,04,03,18,27,12.80
2016,04,03,18,28,12.80
2016,04,03,18,29,12.80
2016,04,03,18,31,12.80
2016,04,03,18,32,12.80
2016,04,03,18,33,12.80
2016,04,03,18,34,12.80
2016,04,03,18,36,12.80
2016,04,03,18,37,12.80
2016,04,03,18,38,12.80
2016,04,03,18,39,12.80
2016,04,03,18,41,12.80
2016,04,03,18,42,12.80
2016,04,03,18,43,12.80
2016,04,03,18,44,12.80
2016,04,03,18,46,12.80
2016,04,03,18,47,12.70
2016,04,03,18,48,12.70
2016,04,03,18,49,12.70
2016,04,03,18,51,12.70
2016,04,03,18,52,12.70
2016,04,03,18,53,12.60
2016,04,03,18,54,12.60
2016,04,03,18,56,12.60
2016,04,03,18,57,12.60
2016,04,03,18,58,12.60
2016,04,03,18,59,12.60
2016,04,03,19,01,12.60
2016,04,03,19,02,12.50
2016,04,03,19,03,12.50
2016,04,03,19,04,12.50
2016,04,03,19,06,12.50
2016,04,03,19,07,12.50
2016,04,03,19,08,12.50
2016,04,03,19,09,12.40
2016,04,03,19,11,12.40
2016,04,03,19,12,12.40
2016,04,03,19,13,12.40
2016,04,03,19,14,12.40
2016,04,03,19,15,12.40
2016,04,03,19,16,12.40
2016,04,03,19,17,12.40
2016,04,03,19,18,12.40
2016,04,03,19,19,12.30
2016,04,03,19,20,12.30
2016,04,03,19,21,12.30
2016,04,03,19,22,12.30
2016,04,03,19,23,12.30
2016,04,03,19,24,12.30
2016,04,03,19,25,12.30
2016,04,03,19,26,12.30
2016,04,03,19,27,12.30
2016,04,03,19,28,12.30
2016,04,03,19,29,12.30
2016,04,03,19,30,12.30
2016,04,03,19,31,12.30
2016,04,03,19,32,12.30
2016,04,03,19,33,12.30
2016,04,03,19,34,12.30
2016,04,03,19,35,12.30
2016,04,03,19,36,12.30
2016,04,03,19,37,12.40
2016,04,03,19,38,12.40
2016,04,03,19,39,12.40
2016,04,03,19,40,12.40
2016,04,03,19,41,12.40
2016,04,03,19,42,12.40
2016,04,03,19,43,12.40
2016,04,03,19,44,12.40
2016,04,03,19,45,12.40
2016,04,03,19,46,12.40
2016,04,03,19,47,12.40
2016,04,03,19,48,12.40
2016,04,03,19,49,12.40
2016,04,03,19,50,12.30
2016,04,03,19,51,12.30
2016,04,03,19,52,12.30
2016,04,03,19,53,12.30
2016,04,03,19,54,12.30
2016,04,03,19,55,12.30
2016,04,03,19,56,12.30
2016,04,03,19,57,12.30
2016,04,03,19,58,12.30
2016,04,03,19,59,12.30
2016,04,03,20,00,12.30
2016,04,03,20,01,12.30
2016,04,03,20,02,12.30
2016,04,03,20,03,12.30
2016,04,03,20,04,12.30
2016,04,03,20,05,12.30
2016,04,03,20,06,12.30
2016,04,03,20,07,12.40
2016,04,03,20,08,12.40
2016,04,03,20,09,12.40
2016,04,03,20,10,12.40
2016,04,03,20,11,12.50
2016,04,03,20,12,12.50
2016,04,03,20,13,12.50
2016,04,03,20,14,12.50
2016,04,03,20,15,12.50
2016,04,03,20,16,12.60
2016,04,03,20,17,12.60
2016,04,03,20,18,12.60